Temperature
13 13 14 14 12 10 11 12 14 15 16 17 17 17 16 16 17 17 16 17 17 17 16 16 16 16 17 17 17 17 16 16 16 16 16 16 16 16 16 16 16 16 15 15 15 15 15 16 15
13 13 14 13 10 10 11 12 14 15 16 17 17 16 15 15 16 16 16 16 16 16 16 16 16 16 16 17 16 16 16 16 16 16 16 16 16 16 16 15 15 15 15 15 15 15 15 15 15
13 13 13 10 10 10 12 13 14 15 16 16 15 15 15 15 15 15 16 16 16 16 16 16 16 16 16 16 16 16 16 16 16 16 16 16 16 15 15 15 15 15 15 15 15 15 15 15 15
12 12 12 9 10 11 12 13 13 14 15 15 14 13 14 14 15 15 15 15 16 16 15 16 16 16 16 16 16 16 16 16 16 16 16 16 15 15 15 15 15 15 15 15 15 15 15 15 15
12 12 9 9 10 11 11 13 14 13 13 14 13 12 13 14 14 15 15 15 15 15 15 15 15 16 16 16 16 16 16 16 16 15 15 15 15 15 15 15 15 15 15 15 15 15 15 15 15
11 9 8 8 10 11 11 13 13 12 13 13 13 12 13 13 14 14 14 15 15 15 15 15 15 15 15 16 16 16 15 15 15 15 15 15 15 15 15 15 15 15 15 15 15 15 15 15 14
10 8 8 9 9 10 12 13 12 12 12 13 13 12 12 13 13 13 14 14 14 15 15 15 15 15 15 15 15 15 15 15 15 15 15 15 15 15 15 15 15 15 15 15 15 14 14 14 14
10 8 8 8 9 10 12 12 13 12 12 13 13 12 12 12 13 13 13 14 14 14 14 14 15 15 15 15 15 15 15 15 15 15 15 15 15 15 15 15 15 15 15 15 15 14 14 14 14
10 7 8 9 9 10 11 11 12 12 12 12 12 12 13 12 12 13 13 13 13 13 14 14 14 14 14 14 14 15 15 15 15 15 15 15 15 15 15 15 14 14 14 14 14 14 14 14 14
9 7 8 10 10 10 10 10 11 11 11 11 11 12 12 12 12 12 13 13 13 13 13 14 14 14 14 14 14 14 14 14 14 14 14 14 14 14 14 14 14 14 14 14 14 14 14 14 14
9 8 9 10 10 10 10 10 11 10 10 10 10 11 11 12 11 12 12 12 12 13 13 13 13 14 14 14 14 14 14 14 14 14 14 14 14 14 14 14 14 14 14 14 14 14 14 14 13
8 9 9 10 10 10 10 10 10 10 10 11 11 11 11 11 11 11 12 12 12 12 12 13 13 13 13 14 14 14 14 14 14 14 14 14 14 14 14 14 14 14 14 14 14 13 13 13 13
8 9 10 10 10 10 10 10 10 10 11 11 11 11 11 11 11 11 11 12 12 12 12 12 13 13 13 13 13 13 13 13 13 13 13 13 13 13 13 14 13 13 13 13 13 13 13 13 13
9 9 9 10 10 10 9 9 10 10 10 10 10 10 11 11 11 11 11 11 12 12 12 12 12 12 12 13 13 13 13 13 13 13 13 13 13 13 13 13 13 13 13 13 13 13 13 13 12
9 8 9 9 10 10 10 9 9 10 10 10 10 10 10 10 11 11 11 11 11 12 12 12 12 12 12 12 13 13 13 13 12 12 13 12 12 13 13 13 13 13 13 13 12 12 12 12 12
8 8 8 9 10 10 9 9 9 10 10 9 9 9 10 10 10 10 11 11 11 11 11 12 12 12 12 12 12 12 12 12 12 12 12 12 12 12 12 12 12 12 12 12 12 12 12 12 12
7 7 8 9 9 9 9 8 9 10 9 9 9 9 9 9 10 10 10 11 11 11 11 11 11 11 11 11 12 12 12 12 12 12 12 12 12 12 12 12 12 12 12 12 12 12 12 11 11
7 7 8 8 9 9 8 8 9 10 9 9 9 9 9 9 10 10 10 10 11 11 11 11 11 11 11 11 11 11 11 11 11 11 11 11 11 11 11 11 11 11 11 11 11 11 11 11 11
8 8 8 8 9 9 8 8 9 9 9 9 9 9 9 9 10 10 10 10 10 10 10 10 10 10 10 11 11 11 11 11 11 11 11 11 11 11 11 11 11 11 11 11 11 11 11 10 10
8 8 8 8 9 9 8 9 9 9 9 9 9 9 9 9 9 9 10 10 10 10 10 10 10 10 10 10 10 10 10 10 10 10 10 10 10 10 10 10 10 10 10 10 10 10 10 10 10
8 8 8 8 8 9 9 8 9 9 9 10 10 9 9 10 10 9 10 10 10 10 10 10 10 10 10 10 10 10 10 10 10 10 10 10 10 10 10 10 10 10 10 10 10 10 9 9 9
8 9 9 8 8 7 8 7 8 8 9 9 9 9 9 9 10 9 10 10 10 10 10 10 10 10 10 10 10 10 10 10 10 10 10 10 9 9 9 9 9 9 9 9 9 9 9 9 9
8 8 8 8 8 7 7 7 7 8 8 8 8 9 10 10 10 9 10 10 10 9 9 10 10 10 9 9 9 9 9 10 10 9 9 9 9 9 9 9 9 9 9 9 9 8 8 8 8
8 8 8 7 7 7 7 7 7 7 8 9 9 9 10 10 10 9 10 10 9 9 9 9 9 9 9 9 9 9 9 9 9 9 9 9 9 9 9 9 8 8 8 8 8 8 8 8 8
8 7 7 7 6 7 7 7 7 8 8 9 9 9 10 10 10 9 9 9 9 9 9 9 9 9 9 9 9 9 9 9 9 9 9 9 9 9 8 8 8 8 8 8 8 8 7 7 7
7 7 7 8 7 6 7 7 8 9 9 9 10 10 10 10 10 10 10 9 9 9 9 9 9 9 9 9 9 9 9 8 8 8 8 8 8 8 8 8 8 8 7 7 7 7 7 7 7
8 7 7 6 6 6 7 7 8 9 8 8 8 9 9 9 9 9 9 9 9 9 9 9 9 9 9 9 9 9 8 8 8 8 8 8 8 8 8 7 7 7 7 7 7 7 6 6 6
8 7 6 6 7 7 7 7 7 8 8 8 7 8 9 9 9 9 9 9 9 9 9 9 9 8 9 9 8 8 8 8 8 8 8 7 7 7 7 7 7 7 7 6 6 6 6 6 6
8 8 7 6 6 7 7 8 8 8 8 7 7 9 9 9 9 9 9 9 9 9 9 9 9 8 8 8 8 8 8 8 8 7 7 7 7 7 7 7 7 7 6 6 6 6 6 5 5
8 8 7 7 7 6 6 7 8 7 8 8 8 9 9 9 9 9 9 9 9 9 9 8 8 8 8 8 8 8 7 7 7 7 7 7 7 6 6 6 6 6 6 6 6 5 5 5 5
Wind_Speed
14 12 3 4 5 3 3 4 3 2 2 2 1 1 3 3 3 3 2 6 8 11 13 16 16 16 16 16 16 15 15 14 14 13 13 12 12 12 11 11 10 10 10 10 10 9 9 9 9
10 4 5 5 4 3 4 4 4 4 4 1 2 2 2 1 1 3 3 5 9 10 12 15 17 16 16 16 16 15 15 14 13 13 12 12 12 11 11 11 10 10 10 9 9 8 8 7 8
7 2 4 4 3 5 5 3 5 5 4 1 2 3 1 1 1 1 3 8 9 9 10 14 17 16 16 16 15 15 15 14 14 13 12 12 12 11 11 10 10 9 9 8 8 7 7 7 7
3 4 4 3 4 4 4 4 4 4 4 3 2 2 2 2 1 1 7 9 9 7 9 14 17 17 16 16 15 14 14 14 14 13 12 11 11 11 11 10 10 9 9 8 8 7 6 6 6
4 4 3 1 4 3 3 4 4 3 3 2 2 1 1 4 1 5 8 9 10 7 8 12 16 17 16 16 15 14 14 14 13 13 12 12 11 11 11 10 10 9 8 8 7 6 6 5 5
4 3 2 3 4 4 4 4 2 2 3 1 1 1 1 2 3 4 6 7 8 8 9 11 16 17 16 16 15 14 13 13 13 12 12 11 11 11 10 10 9 8 8 7 6 6 5 4 4
3 3 2 3 3 4 4 3 1 2 3 3 2 2 1 1 2 3 5 6 7 8 8 9 12 15 16 15 15 14 13 13 12 12 11 11 11 10 10 9 8 8 7 7 5 5 4 4 4
3 2 1 2 3 4 3 4 2 2 4 2 2 4 3 3 1 3 6 6 6 7 7 8 9 11 13 14 14 14 13 12 12 11 11 11 11 10 9 8 8 7 7 6 5 4 4 4 4
3 2 2 3 3 4 3 4 5 4 1 0 1 2 3 3 2 5 6 5 5 6 5 7 7 9 11 12 13 12 12 11 11 10 11 10 9 8 8 7 8 7 6 6 5 5 5 5 5
3 2 4 3 3 4 5 4 4 4 2 1 1 1 3 4 4 6 7 6 5 5 5 5 7 7 9 10 10 10 9 10 9 9 9 9 8 8 7 7 8 7 7 6 6 6 6 6 5
2 4 4 4 5 4 4 4 3 2 4 4 4 4 4 4 4 5 6 7 6 5 5 5 6 6 7 7 8 7 8 8 8 8 8 8 8 8 7 7 7 7 7 7 6 7 6 5 5
2 4 4 4 4 3 4 3 3 3 6 4 4 5 6 6 6 5 5 6 6 6 5 5 6 6 6 7 7 7 6 6 6 7 8 7 6 5 5 5 6 6 6 6 6 5 5 5 5
3 4 5 6 6 4 4 4 4 6 6 2 2 4 6 6 5 4 4 5 6 6 5 5 5 5 5 7 6 6 6 6 7 8 8 8 6 4 4 4 5 5 5 5 4 5 5 5 5
4 5 7 6 6 4 4 5 3 5 2 1 2 4 4 5 5 5 5 5 6 6 5 5 6 6 5 5 5 5 6 7 8 7 8 8 7 5 4 4 4 4 5 4 4 4 3 3 4
3 5 7 6 4 3 2 5 5 4 1 2 2 3 3 3 4 5 6 6 6 6 5 6 6 6 5 5 6 6 6 7 7 7 8 8 8 7 5 3 3 4 5 5 5 5 5 3 3
2 3 4 5 2 2 2 6 5 2 3 3 3 3 3 3 4 4 5 6 6 7 6 6 6 6 5 5 6 6 6 7 6 7 7 8 8 7 6 3 3 4 6 5 3 3 4 3 3
2 3 4 6 2 1 2 5 5 2 3 4 4 4 4 4 4 4 4 6 6 6 7 6 6 6 6 6 6 6 6 6 5 6 6 7 7 7 6 4 4 6 5 4 3 4 3 2 2
4 4 4 5 3 0 2 6 6 3 3 3 4 4 4 4 4 4 5 6 6 6 6 6 7 6 6 5 5 5 5 4 5 5 6 6 6 7 6 5 5 5 4 4 3 4 3 2 2
4 4 6 6 4 2 4 5 5 3 3 3 4 5 5 4 4 5 6 6 6 5 5 6 6 5 5 4 4 3 3 2 3 4 5 6 6 6 6 4 4 4 3 3 3 3 4 3 2
3 4 5 6 3 2 3 5 4 3 3 4 6 6 7 6 5 5 6 6 6 6 5 5 6 5 5 3 3 3 3 2 2 2 4 5 5 5 5 4 3 3 3 4 4 3 2 2 3
3 3 4 5 5 2 1 5 3 2 1 2 4 5 6 8 8 7 7 6 6 6 6 6 5 5 5 5 4 4 3 3 2 2 1 2 4 4 5 4 4 3 3 2 3 3 3 1 2
4 4 4 4 3 3 1 2 5 3 1 2 4 4 5 6 6 6 6 6 6 5 5 5 5 5 5 5 5 5 3 2 2 2 1 1 3 3 4 4 4 3 2 2 2 2 1 2 1
5 4 3 2 0 3 2 1 6 2 3 5 5 6 6 7 8 8 7 7 6 5 5 5 5 5 5 5 5 5 3 2 2 1 2 1 1 2 3 3 3 2 2 2 2 2 1 1 1
4 3 2 3 3 2 3 2 5 3 5 5 6 6 7 7 7 7 6 6 5 5 4 5 5 4 4 5 5 5 5 4 3 2 1 1 0 0 1 2 2 2 1 1 1 1 1 1 1
4 4 4 5 3 4 3 1 6 6 5 6 7 8 7 8 7 7 7 7 6 7 6 6 6 5 4 5 4 5 5 5 5 4 3 2 1 1 2 1 1 1 2 2 2 1 1 1 1
2 3 3 1 3 5 3 3 6 6 4 3 5 6 7 7 7 8 8 8 7 7 7 7 7 5 5 5 5 4 5 4 3 4 4 4 3 3 2 2 2 2 2 2 2 1 1 1 2
1 0 3 3 1 3 5 6 6 3 3 1 2 4 6 7 7 7 7 7 7 7 7 8 7 6 6 6 5 4 4 4 4 3 3 3 3 2 3 3 3 2 3 3 2 2 2 2 2
2 2 3 2 1 3 5 5 4 5 4 2 2 4 5 5 6 6 6 6 6 6 6 6 6 6 5 5 4 4 4 4 4 3 4 3 3 3 3 3 3 3 3 3 2 2 2 2 2
0 0 2 2 3 2 3 6 4 5 4 5 6 5 6 6 6 6 6 5 5 4 5 5 5 5 4 5 4 4 4 4 4 3 4 3 3 3 3 4 4 3 3 3 3 3 3 3 3
3 3 4 2 2 3 3 6 5 3 2 3 4 4 5 6 5 6 6 5 5 5 4 5 5 5 5 5 4 4 4 3 4 4 4 3 4 3 4 4 4 4 4 4 4 4 4 4 4
Wind_Direction
332 333 19 50 63 65 231 249 254 293 295 287 293 120 136 155 176 181 128 129 133 149 155 154 149 143 141 139 137 133 130 127 124 121 119 118 117 114 112 109 106 102 99 97 97 95 94 91 87
333 347 48 62 115 188 254 243 241 247 244 276 360 37 62 63 46 98 107 136 138 143 150 152 147 142 140 137 135 135 133 130 127 125 122 120 119 116 114 110 106 102 99 99 97 95 93 94 90
337 30 81 91 155 190 218 236 241 275 288 356 13 17 65 126 41 127 158 145 134 136 143 151 147 142 138 137 135 135 134 132 130 128 125 122 120 117 115 110 106 102 99 98 97 93 93 93 90
33 42 61 102 212 222 219 265 282 299 328 24 54 7 357 352 301 172 144 136 132 132 135 148 146 143 138 134 133 132 135 133 132 130 128 126 124 120 117 113 108 104 103 101 95 91 90 90 87
55 79 83 237 243 259 265 288 311 303 301 349 38 48 335 326 21 123 136 133 135 131 132 144 144 143 139 135 132 132 134 134 131 130 128 125 122 118 115 114 110 107 105 102 97 88 88 89 82
47 73 131 228 251 276 283 287 306 292 287 320 33 85 225 306 68 109 123 127 131 136 133 138 142 141 138 135 131 128 129 131 130 129 128 127 123 119 116 114 111 109 104 101 97 87 80 81 75
100 103 184 217 249 276 280 299 284 268 272 252 193 145 213 298 36 94 112 120 123 123 125 123 134 139 137 132 128 124 121 123 126 127 127 125 123 120 119 115 111 108 105 99 92 84 70 68 63
123 109 219 231 231 254 295 325 300 263 255 242 154 161 202 239 319 108 103 106 120 122 122 120 120 128 128 126 125 121 118 114 115 118 118 119 119 119 117 112 107 104 100 95 87 74 61 61 59
86 91 228 230 233 258 310 328 315 300 213 24 246 209 207 172 132 117 109 100 116 120 124 125 121 120 123 123 122 117 111 108 105 109 113 110 109 109 107 103 100 95 90 85 77 67 59 56 54
111 187 232 233 242 271 299 294 302 321 316 327 325 1 141 145 142 140 138 137 135 135 132 130 131 126 125 123 118 113 108 102 98 100 102 104 104 101 100 94 90 84 77 72 66 60 55 58 52
174 210 238 263 267 278 289 294 301 300 281 252 239 205 168 160 157 158 152 151 150 145 135 130 131 126 122 120 118 112 107 100 94 95 97 98 92 88 85 79 73 70 67 57 51 48 48 55 52
244 255 242 260 272 280 278 278 287 260 262 274 229 194 179 175 170 166 156 146 144 135 135 125 117 116 117 117 116 112 106 100 93 92 96 97 88 79 79 76 71 64 61 58 54 45 42 48 51
251 272 269 263 271 263 271 263 254 266 283 299 199 182 175 177 166 151 141 136 136 132 131 129 120 115 121 117 116 111 107 104 99 93 91 96 93 85 78 75 71 59 57 60 55 45 46 50 50
255 274 285 275 265 264 266 275 256 264 284 288 179 182 174 163 154 144 138 142 138 129 126 122 120 118 116 118 115 113 111 106 98 90 89 92 96 92 83 72 66 53 52 57 61 57 61 57 57
291 297 300 277 245 238 252 290 252 250 194 243 220 174 164 162 151 151 158 151 141 136 130 117 115 114 121 119 112 110 110 107 98 90 87 88 92 92 85 71 63 55 60 63 59 50 57 61 57
314 306 300 291 243 214 162 272 273 256 190 222 206 171 167 163 152 138 143 141 138 136 130 122 119 108 104 107 108 109 107 104 99 95 89 86 88 90 86 71 59 64 67 64 67 55 48 42 44
350 308 287 300 280 175 185 263 281 262 191 208 184 169 166 150 132 132 139 140 137 136 130 124 112 109 103 105 105 103 100 96 98 96 89 85 83 87 87 72 59 69 65 54 58 54 54 37 30
291 294 292 287 299 217 234 264 283 268 214 208 182 169 170 154 149 147 142 138 134 128 125 126 118 114 109 104 99 90 82 78 84 90 93 90 87 86 85 74 60 67 69 56 57 62 49 38 26
267 279 287 278 277 288 258 263 269 248 213 201 179 181 177 164 144 132 141 136 130 125 129 135 129 131 127 119 115 107 99 86 75 82 90 92 90 89 83 72 61 58 69 66 63 71 57 33 20
266 286 295 294 301 275 272 282 275 228 217 204 188 184 177 160 146 145 151 147 146 145 145 143 142 140 138 131 124 116 122 109 92 80 77 83 84 85 89 81 72 66 70 61 54 57 61 30 24
288 244 279 291 320 331 337 324 311 284 216 194 181 179 176 169 168 168 161 155 152 156 160 156 150 143 136 126 110 100 84 71 66 65 59 67 86 87 92 90 83 74 75 73 59 63 79 65 16
283 255 264 293 350 315 36 297 296 264 248 230 203 188 181 171 167 169 164 162 166 170 164 151 150 145 136 129 133 138 140 150 181 172 155 90 94 96 98 100 93 83 85 85 62 64 78 106 50
256 284 278 266 288 330 347 184 291 284 242 239 222 201 192 177 173 176 175 172 169 168 166 156 148 144 136 135 143 138 133 146 142 125 125 111 83 105 111 114 111 105 100 109 97 81 73 97 132
284 339 8 45 67 334 283 181 290 256 233 230 217 207 193 183 178 175 165 156 157 159 162 156 152 153 147 144 144 149 153 154 143 150 159 166 190 85 120 136 135 133 129 129 128 118 102 109 127
30 52 24 6 6 274 298 209 261 265 246 218 203 199 190 185 181 175 169 173 173 173 171 167 161 166 163 157 162 169 172 172 175 184 190 189 195 216 225 180 165 169 177 168 141 124 125 147 150
315 121 139 213 267 293 322 255 265 284 281 241 198 183 176 179 182 184 183 185 186 183 177 173 171 175 176 175 181 180 180 180 189 195 194 200 206 212 206 198 202 206 194 178 160 160 192 178 188
347 237 178 149 261 283 288 289 302 317 339 24 151 164 180 183 183 183 181 182 183 183 185 183 179 182 186 185 182 184 189 188 193 198 197 202 210 209 198 200 202 209 204 196 177 199 213 206 215
188 173 86 108 328 299 297 288 274 282 273 251 202 195 196 186 186 184 180 183 184 188 186 181 181 188 187 183 187 194 199 198 194 190 200 205 210 203 196 205 208 209 209 204 194 213 222 218 232
228 159 134 150 170 185 294 286 245 242 239 220 220 213 200 192 190 190 191 187 184 183 181 182 185 185 185 190 196 196 202 199 191 195 207 211 215 209 208 210 212 215 218 214 205 220 225 229 243
191 193 152 163 253 196 214 270 288 248 229 207 215 216 207 200 196 193 191 185 184 186 188 192 193 195 199 195 192 202 203 195 198 210 217 213 217 216 213 210 214 222 222 215 212 224 226 226 234
Height
1516 1516 1517 1519 1522 1531 1530 1524 1516 1513 1511 1509 1508 1507 1507 1509 1511 1515 1511 1509 1511 1514 1517 1519 1522 1523 1524 1526 1527 1528 1529 1531 1532 1533 1534 1534 1535 1536 1537 1537 1538 1538 1539 1539 1539 1540 1540 1540 1540
1515 1516 1518 1519 1527 1535 1530 1521 1516 1512 1510 1508 1507 1507 1506 1507 1507 1508 1507 1509 1511 1513 1516 1518 1521 1522 1524 1525 1527 1528 1529 1530 1531 1532 1533 1534 1535 1536 1536 1537 1538 1538 1539 1539 1539 1540 1540 1540 1540
1515 1516 1518 1521 1527 1529 1524 1516 1513 1510 1509 1508 1508 1507 1507 1507 1507 1507 1507 1508 1511 1513 1516 1518 1520 1522 1523 1525 1527 1528 1529 1530 1531 1532 1533 1534 1535 1536 1536 1537 1537 1538 1538 1539 1539 1539 1540 1540 1540
1516 1517 1519 1524 1524 1521 1517 1514 1511 1509 1508 1507 1507 1507 1507 1508 1507 1507 1507 1508 1510 1512 1515 1518 1520 1521 1523 1525 1526 1527 1529 1530 1531 1532 1533 1534 1535 1535 1536 1536 1537 1537 1538 1538 1539 1539 1540 1540 1540
1515 1517 1522 1526 1522 1518 1514 1512 1511 1510 1508 1507 1507 1507 1506 1507 1507 1507 1507 1508 1509 1512 1514 1517 1519 1521 1523 1524 1525 1527 1528 1530 1531 1532 1533 1533 1534 1535 1535 1536 1536 1537 1537 1538 1538 1539 1539 1540 1540
1516 1518 1526 1527 1522 1517 1513 1511 1510 1510 1508 1507 1506 1506 1506 1507 1506 1507 1507 1508 1509 1511 1513 1516 1519 1521 1522 1524 1525 1526 1528 1529 1530 1531 1532 1533 1534 1534 1535 1536 1536 1536 1537 1537 1538 1538 1539 1539 1540
1518 1521 1525 1523 1521 1518 1513 1511 1510 1509 1507 1507 1505 1506 1505 1506 1506 1506 1507 1508 1509 1511 1513 1515 1518 1520 1521 1523 1524 1526 1527 1528 1530 1531 1532 1532 1533 1534 1535 1535 1536 1536 1537 1537 1537 1538 1538 1539 1539
1518 1522 1523 1522 1520 1516 1512 1510 1509 1508 1506 1505 1504 1504 1504 1505 1505 1506 1507 1507 1509 1510 1512 1514 1516 1518 1520 1522 1524 1525 1527 1528 1529 1530 1531 1532 1532 1533 1534 1534 1535 1536 1536 1537 1537 1537 1538 1538 1538
1518 1524 1524 1520 1518 1514 1511 1510 1508 1506 1504 1503 1502 1502 1501 1503 1503 1504 1505 1506 1508 1509 1510 1512 1514 1517 1519 1521 1523 1524 1526 1527 1528 1529 1530 1531 1532 1533 1533 1534 1534 1535 1536 1536 1536 1537 1537 1537 1537
1518 1524 1520 1516 1514 1512 1510 1509 1507 1504 1503 1501 1500 1500 1500 1501 1501 1501 1502 1504 1506 1507 1508 1511 1513 1515 1518 1520 1522 1523 1525 1526 1528 1529 1529 1530 1531 1532 1533 1533 1534 1534 1535 1535 1536 1536 1536 1536 1537
1517 1518 1515 1513 1511 1510 1509 1507 1505 1504 1501 1500 1498 1497 1497 1499 1500 1500 1501 1503 1504 1506 1507 1510 1512 1514 1517 1519 1521 1523 1524 1526 1527 1528 1529 1529 1530 1531 1532 1533 1533 1534 1534 1535 1535 1535 1535 1536 1536
1517 1514 1513 1511 1509 1509 1507 1506 1504 1502 1500 1498 1497 1495 1495 1496 1498 1499 1500 1502 1503 1505 1506 1509 1511 1514 1516 1518 1520 1522 1524 1525 1526 1527 1528 1529 1529 1530 1531 1532 1533 1533 1533 1534 1534 1535 1535 1535 1535
1515 1513 1510 1509 1507 1506 1506 1504 1502 1499 1497 1496 1495 1494 1494 1496 1497 1499 1500 1501 1502 1503 1505 1508 1510 1513 1515 1517 1520 1522 1523 1525 1526 1527 1528 1528 1529 1529 1530 1531 1531 1532 1533 1533 1534 1534 1534 1534 1534
1514 1512 1509 1507 1506 1505 1504 1502 1501 1497 1497 1496 1495 1494 1494 1494 1496 1497 1499 1500 1501 1503 1505 1508 1510 1513 1515 1517 1519 1521 1523 1524 1525 1527 1527 1528 1529 1529 1529 1530 1531 1531 1532 1532 1533 1533 1533 1533 1533
1513 1512 1508 1505 1503 1503 1503 1501 1499 1496 1496 1495 1495 1494 1494 1494 1495 1496 1498 1500 1501 1503 1505 1508 1510 1513 1514 1515 1518 1520 1522 1523 1525 1526 1527 1528 1528 1528 1529 1530 1530 1530 1531 1531 1531 1532 1532 1532 1532
1514 1514 1513 1505 1501 1501 1505 1503 1497 1495 1495 1494 1494 1494 1495 1495 1496 1497 1498 1500 1503 1504 1506 1508 1510 1512 1513 1514 1517 1519 1522 1523 1524 1525 1526 1527 1527 1528 1528 1529 1529 1529 1530 1530 1530 1530 1531 1531 1531
1517 1518 1513 1507 1501 1501 1503 1501 1495 1494 1494 1493 1493 1494 1495 1495 1496 1497 1499 1501 1503 1504 1506 1508 1510 1512 1513 1514 1516 1519 1521 1522 1524 1525 1526 1526 1527 1527 1528 1528 1528 1528 1529 1529 1529 1529 1530 1530 1530
1519 1517 1513 1509 1502 1501 1502 1499 1495 1493 1493 1492 1493 1494 1495 1495 1496 1498 1499 1501 1503 1505 1507 1509 1510 1512 1514 1514 1516 1518 1520 1522 1523 1524 1525 1525 1526 1527 1527 1527 1527 1527 1528 1528 1528 1528 1528 1528 1528
1515 1514 1513 1507 1501 1501 1500 1497 1494 1491 1492 1492 1493 1493 1494 1495 1496 1497 1499 1501 1503 1505 1507 1509 1510 1512 1514 1515 1516 1517 1519 1521 1522 1523 1524 1525 1525 1526 1526 1526 1526 1526 1527 1527 1527 1527 1527 1527 1527
1513 1513 1512 1506 1501 1501 1499 1496 1492 1491 1491 1490 1491 1492 1493 1494 1496 1497 1500 1501 1503 1505 1507 1509 1510 1512 1514 1515 1516 1517 1519 1520 1521 1522 1523 1524 1524 1525 1525 1525 1525 1525 1526 1526 1526 1525 1525 1525 1525
1511 1512 1510 1508 1503 1500 1500 1499 1494 1491 1490 1490 1491 1492 1492 1494 1495 1497 1498 1500 1502 1505 1507 1508 1510 1512 1513 1515 1516 1517 1519 1520 1521 1521 1522 1522 1523 1524 1524 1524 1524 1524 1524 1524 1524 1524 1524 1524 1524
1512 1507 1506 1505 1508 1509 1505 1508 1497 1492 1491 1490 1490 1491 1492 1493 1495 1496 1497 1499 1501 1504 1506 1507 1509 1511 1512 1514 1516 1517 1518 1519 1520 1521 1521 1521 1522 1522 1522 1523 1523 1523 1523 1523 1522 1522 1522 1522 1522
1509 1506 1506 1505 1507 1509 1507 1509 1502 1494 1493 1490 1489 1489 1490 1492 1494 1496 1497 1498 1500 1503 1504 1506 1509 1510 1512 1513 1515 1516 1517 1518 1519 1519 1520 1520 1520 1521 1521 1521 1521 1521 1521 1521 1521 1521 1521 1521 1520
1507 1506 1506 1509 1511 1513 1508 1510 1503 1496 1490 1487 1487 1487 1489 1491 1493 1495 1496 1498 1500 1502 1503 1505 1507 1509 1511 1512 1514 1515 1516 1517 1517 1518 1518 1518 1519 1519 1519 1519 1520 1520 1520 1520 1519 1519 1519 1519 1519
1510 1514 1520 1517 1520 1515 1508 1508 1502 1489 1486 1484 1484 1485 1487 1490 1492 1494 1495 1497 1499 1501 1502 1504 1506 1508 1510 1511 1513 1514 1515 1515 1516 1517 1517 1517 1517 1517 1517 1518 1518 1518 1518 1518 1517 1517 1517 1516 1516
1512 1514 1522 1521 1520 1518 1510 1508 1496 1486 1483 1482 1482 1484 1486 1488 1490 1492 1494 1496 1498 1499 1501 1503 1505 1507 1508 1510 1511 1512 1513 1514 1514 1515 1515 1515 1515 1515 1515 1515 1516 1516 1516 1515 1515 1514 1514 1514 1514
1511 1515 1514 1521 1520 1520 1512 1503 1492 1485 1484 1483 1482 1483 1485 1486 1488 1490 1492 1495 1496 1498 1500 1502 1504 1505 1507 1508 1509 1510 1511 1512 1512 1512 1512 1513 1513 1513 1513 1513 1513 1513 1513 1513 1512 1512 1512 1511 1511
1511 1512 1519 1519 1517 1515 1510 1505 1500 1489 1486 1485 1484 1484 1484 1486 1488 1489 1491 1493 1494 1496 1498 1500 1502 1504 1505 1506 1507 1508 1509 1509 1509 1510 1510 1510 1510 1510 1510 1510 1510 1510 1510 1510 1509 1509 1509 1508 1508
1512 1512 1515 1519 1519 1518 1514 1505 1490 1487 1484 1484 1484 1484 1484 1485 1486 1488 1490 1491 1493 1495 1496 1498 1499 1501 1502 1503 1504 1505 1506 1506 1506 1506 1506 1507 1507 1507 1507 1507 1507 1507 1507 1507 1506 1506 1505 1505 1504
1509 1509 1513 1517 1516 1519 1520 1508 1485 1484 1482 1482 1482 1483 1484 1485 1486 1487 1488 1490 1491 1493 1494 1495 1497 1498 1500 1501 1502 1502 1502 1502 1503 1503 1503 1503 1504 1504 1504 1504 1504 1503 1503 1503 1502 1502 1502 1501 1500